Theta_e
353 349 347 355 356 356 357 357 357 357 357 357 357 358 358 358 357 356 356 355 355 355 355 354 354 354 354 353 353 352 352 351 351 351 350 350 351 351 353 352 352 351 350 350 350 350 352 352 351 350 348 347 346 345 345 346 345 345 344 345 344 345 345 347 347 348 347 345 342 339 341 342 340 340 339 338 339 339 339 338 335 332 332 333 334
354 349 349 355 355 356 356 356 357 357 357 357 357 357 356 356 357 356 356 355 355 355 354 354 354 354 353 353 352 352 352 351 351 350 350 350 350 350 351 351 350 350 349 348 348 351 351 351 350 349 347 345 345 344 345 344 346 346 346 347 346 346 345 345 344 343 343 344 342 341 341 341 339 338 337 338 342 341 338 336 334 331 330 335 335
354 349 351 353 355 355 356 356 357 357 357 357 357 355 356 356 356 356 356 356 355 355 354 354 354 353 353 352 352 352 352 352 351 351 350 350 349 349 349 349 350 349 348 346 347 351 351 350 349 348 348 346 346 345 344 345 347 349 349 349 349 349 347 345 344 344 344 342 341 341 338 338 338 339 341 342 342 341 338 336 335 335 331 334 334
352 349 351 356 355 355 355 356 356 356 356 356 355 354 354 356 356 356 356 355 354 354 354 353 353 353 352 352 352 352 352 352 351 350 350 350 350 349 348 349 349 347 345 345 345 346 346 347 348 348 348 347 345 344 343 345 344 348 347 348 347 348 346 345 344 342 343 343 341 339 340 338 340 342 342 341 342 341 338 336 335 335 334 335 335
353 351 353 354 355 355 354 355 355 355 355 355 354 353 354 354 354 354 354 354 354 354 353 353 353 352 352 353 353 352 352 351 351 350 350 350 350 348 348 348 347 346 346 346 346 346 346 346 348 348 346 345 345 344 343 345 345 345 346 347 347 346 346 345 345 344 341 342 341 347 339 338 339 341 340 339 342 341 338 335 335 335 335 334 334
352 351 349 350 353 355 354 354 355 355 354 354 353 354 355 355 354 354 354 355 354 354 353 353 352 353 353 353 352 352 352 351 351 350 350 350 350 349 348 348 347 346 346 347 347 346 345 346 347 346 345 345 345 343 342 342 343 344 345 345 346 346 345 343 345 345 346 343 345 344 341 340 337 336 339 341 340 341 340 338 336 336 335 335 335
352 350 349 350 352 353 354 354 354 354 354 354 354 355 355 355 355 354 354 354 354 353 353 353 352 352 352 353 352 352 352 351 351 350 349 349 349 350 348 347 347 346 345 346 347 346 345 345 346 345 345 345 343 343 343 342 343 343 343 344 345 344 343 343 339 344 343 345 349 341 340 340 337 337 341 339 337 339 340 339 336 335 335 335 335
352 348 349 349 351 354 354 353 353 354 354 355 355 355 355 355 355 355 354 354 354 353 353 353 353 352 352 353 352 351 351 350 349 349 349 348 348 348 349 347 347 346 345 344 344 346 345 345 345 346 346 344 343 342 342 343 343 343 343 342 344 343 341 342 342 344 344 345 343 343 342 340 338 337 339 339 339 340 340 339 338 336 336 335 334
350 348 349 350 352 352 353 352 353 353 354 354 355 355 355 355 354 354 354 354 353 353 353 353 352 352 352 352 351 351 350 350 349 349 349 349 349 348 349 348 347 347 346 346 346 347 345 345 345 347 345 344 342 343 343 344 344 343 342 342 343 342 343 341 343 344 343 344 341 342 343 340 339 337 339 340 340 340 340 340 336 335 335 335 334
350 350 350 351 352 353 352 352 352 353 354 354 355 355 355 354 354 354 354 353 353 353 353 353 352 352 352 351 351 350 350 349 349 350 350 349 349 349 347 346 345 345 344 344 344 345 345 346 345 345 346 343 342 343 344 343 343 342 341 341 341 341 342 343 344 345 346 342 341 343 344 347 339 337 337 337 337 338 340 340 339 337 335 335 333
350 350 350 351 352 351 351 352 352 353 353 354 354 354 354 354 354 354 354 353 353 353 353 353 353 352 351 351 351 350 349 349 349 347 349 349 348 348 347 346 346 346 345 345 344 344 345 344 345 346 345 343 344 344 343 343 343 342 342 341 341 341 342 343 343 344 341 333 335 334 338 344 338 337 337 338 339 339 339 340 339 337 334 334 334
348 351 353 351 353 351 351 352 352 353 354 354 354 354 354 354 354 353 353 353 353 353 353 352 352 351 351 350 350 350 349 347 343 346 348 349 348 347 346 346 346 346 345 345 345 344 344 344 345 345 344 344 344 343 343 343 342 342 342 340 340 340 340 341 340 342 341 340 341 342 341 339 337 338 342 342 342 340 339 340 338 337 334 333 332
349 352 353 353 352 350 351 351 352 353 353 354 354 354 353 353 353 353 352 352 352 353 353 352 352 351 350 350 348 349 348 347 346 346 347 346 346 346 346 346 345 345 345 345 345 345 345 346 346 345 344 344 344 344 343 342 342 342 341 340 341 341 342 340 341 341 340 341 340 341 341 338 338 340 341 341 341 343 342 341 339 336 335 335 334
349 351 351 350 352 352 350 350 351 352 352 352 352 352 352 351 352 352 352 351 352 352 352 352 351 350 350 349 349 349 348 347 347 347 346 346 343 345 345 345 345 345 345 345 345 345 346 346 346 345 344 344 344 343 343 343 342 341 341 341 340 342 342 344 346 341 342 341 341 340 341 340 338 339 340 341 340 339 339 339 338 336 335 335 334
347 351 350 351 351 352 352 350 350 350 349 350 351 351 351 351 351 351 351 351 351 352 352 351 350 349 349 350 349 348 348 348 347 346 347 346 345 345 345 344 344 344 344 344 344 345 345 345 343 344 344 344 343 342 342 343 342 341 340 342 341 343 343 342 341 340 340 340 341 338 336 338 340 339 338 338 338 338 338 337 337 337 336 335 334
349 350 347 349 350 352 352 352 351 350 350 350 349 350 349 349 349 350 350 350 350 350 350 349 350 349 350 350 349 349 349 348 347 347 346 345 346 346 346 345 344 344 345 344 344 344 344 344 344 343 343 342 342 342 343 343 343 342 342 342 343 343 344 346 343 340 341 339 339 341 337 339 343 339 338 338 338 338 338 337 336 337 337 335 333
349 349 347 345 347 350 351 350 352 350 348 348 349 349 349 348 347 348 348 349 349 348 348 350 350 349 350 350 350 349 348 347 347 345 346 346 347 346 345 345 344 344 344 344 345 344 344 344 343 343 342 341 341 342 343 343 343 343 341 341 342 343 344 345 343 342 340 340 340 339 339 337 341 338 338 338 338 338 337 337 338 339 336 335 333
347 349 351 347 348 349 349 349 348 348 348 349 349 348 347 345 345 346 348 349 348 349 349 350 350 350 350 350 349 348 348 347 346 345 346 346 347 346 345 345 344 344 345 345 344 343 342 342 342 342 341 342 341 342 342 343 342 343 341 340 342 343 344 346 341 340 340 340 338 341 337 342 341 338 338 338 338 337 337 337 337 337 337 335 333
344 344 346 347 346 349 352 349 348 346 346 347 347 347 344 343 343 345 347 349 348 347 348 350 350 350 350 349 349 348 348 346 346 346 346 347 346 345 344 344 344 344 345 344 342 342 342 342 342 342 341 342 341 341 341 341 342 341 342 341 342 343 345 344 340 338 342 341 340 338 338 342 339 338 338 338 338 338 337 337 338 338 336 336 335
341 343 344 345 347 347 347 348 345 344 346 347 345 345 344 343 343 346 346 348 348 349 350 350 350 350 349 349 349 349 348 348 346 347 345 346 346 345 344 345 344 344 344 343 342 342 341 341 341 341 341 341 341 342 341 342 342 343 342 343 342 344 344 344 340 337 337 338 340 338 342 341 341 337 338 338 338 337 337 338 338 337 337 335 334
339 342 344 344 346 347 347 347 348 347 347 350 348 346 345 345 345 347 347 348 349 348 350 349 349 348 349 349 348 344 344 345 346 344 347 346 346 346 345 344 343 344 343 342 342 341 341 341 341 341 341 342 340 341 342 342 343 342 343 343 342 344 344 342 340 340 336 337 338 338 342 341 339 338 337 337 337 337 338 338 337 338 338 337 336
338 339 343 345 345 346 345 345 347 348 347 349 349 345 345 345 345 346 346 347 348 349 349 347 347 348 347 348 347 347 343 344 346 345 343 346 346 345 344 344 343 343 343 343 342 341 341 341 342 342 341 341 342 339 341 343 343 343 343 344 345 342 343 341 342 337 337 340 338 341 342 342 338 338 337 336 336 336 336 337 338 339 339 338 337
337 339 342 344 344 345 346 345 348 346 347 343 343 346 344 349 345 346 347 347 348 348 346 345 344 344 345 345 348 349 345 346 345 343 343 343 344 344 344 344 343 343 343 343 342 341 341 340 340 340 343 341 339 338 337 338 343 344 344 345 344 342 343 341 339 340 336 339 338 342 342 342 340 339 337 335 335 337 337 338 340 340 339 338 336
337 339 341 344 344 344 344 344 345 345 345 343 346 345 347 347 346 346 346 346 344 343 344 343 343 343 340 345 346 342 343 343 344 345 342 343 345 344 344 343 343 343 343 343 342 342 341 341 340 341 340 340 338 337 336 340 339 341 342 340 339 341 339 338 338 339 337 338 337 341 342 341 340 338 338 337 335 334 337 340 340 340 339 338 336
338 340 343 342 343 345 347 345 349 345 345 344 343 344 342 347 345 345 346 345 341 341 341 342 346 346 343 342 342 340 339 340 343 344 343 343 341 341 342 341 342 342 343 340 341 341 341 338 337 337 339 339 337 338 338 340 343 340 341 341 341 341 341 339 339 336 337 339 341 341 342 341 340 337 337 338 336 334 336 341 340 339 338 336 336
340 340 340 341 342 344 347 342 342 347 346 342 341 343 344 345 345 346 346 345 344 343 344 343 347 348 346 339 337 341 342 343 344 342 341 338 343 341 338 344 337 340 342 342 342 339 337 337 336 336 338 339 338 338 339 340 341 340 341 342 341 341 339 337 337 339 338 337 341 341 341 342 340 338 337 337 336 336 336 340 339 338 336 335 336
338 339 340 341 342 346 345 343 339 341 344 344 342 340 341 343 342 344 343 344 343 345 342 342 346 346 346 342 341 339 341 342 342 341 339 337 339 344 345 343 344 343 341 343 340 338 341 342 340 338 340 339 337 336 336 338 341 338 339 338 340 338 340 339 339 339 338 336 339 341 341 341 341 340 338 337 337 337 336 339 335 335 333 334 338
340 338 341 342 341 344 346 348 345 341 340 344 343 343 344 345 345 344 345 344 346 344 343 344 345 345 343 342 343 344 343 343 343 341 337 337 340 342 341 340 340 341 343 342 339 339 338 340 338 338 336 337 336 336 335 336 338 341 338 339 338 339 339 339 339 341 339 337 337 340 340 341 340 340 339 338 337 336 336 336 335 335 333 333 338
338 338 339 342 342 344 347 341 340 341 346 343 343 343 342 343 344 344 345 345 347 346 346 347 346 347 345 345 342 344 340 340 341 341 342 340 345 342 339 339 337 342 339 342 337 336 337 337 337 336 338 336 335 337 334 335 339 339 339 337 337 337 337 338 340 338 339 339 336 339 341 340 340 340 340 338 337 336 336 336 335 335 334 331 337
338 338 340 342 340 343 343 342 342 339 341 342 341 342 342 342 342 343 344 344 344 346 348 346 348 346 346 344 341 341 343 344 340 340 340 339 340 337 339 342 344 343 343 341 340 338 337 339 337 336 332 336 334 335 333 335 336 338 336 336 338 340 339 339 338 340 338 340 337 339 341 341 341 340 340 339 338 337 336 336 336 336 334 333 334
339 338 340 338 342 341 340 340 342 345 342 342 342 342 343 343 342 345 344 345 345 345 346 346 346 346 346 343 340 339 342 344 341 338 342 342 342 341 340 343 343 340 342 341 342 341 339 338 337 335 336 336 335 332 333 334 336 335 337 333 335 340 336 339 337 338 336 340 338 336 340 340 340 340 339 339 339 338 337 336 335 336 335 334 333
338 337 338 342 340 340 339 340 341 344 344 341 342 341 343 343 344 345 345 344 346 345 343 344 344 345 344 342 339 336 339 343 343 342 344 341 341 342 342 342 340 340 341 343 341 341 340 337 338 339 339 338 336 336 336 334 335 333 333 333 334 336 336 337 336 337 338 339 337 338 337 338 340 339 339 339 338 339 338 338 337 334 334 334 335
338 339 339 339 339 342 341 341 342 341 341 340 339 341 343 340 343 343 345 345 345 344 343 344 344 343 343 340 339 338 340 338 344 343 343 342 339 342 342 340 339 337 338 341 341 342 342 340 340 337 338 338 336 335 333 333 335 334 335 333 336 333 333 333 339 338 339 340 339 338 341 339 338 340 340 339 339 339 339 339 338 338 337 335 335
337 340 338 339 339 339 342 343 342 341 343 341 343 343 344 340 342 344 343 345 344 343 345 344 344 341 340 337 338 339 339 345 343 345 342 343 341 340 339 339 337 336 341 345 344 341 339 339 338 338 337 336 336 336 334 334 333 335 333 334 338 337 337 335 337 339 342 336 339 338 339 340 340 339 339 340 339 339 339 339 339 339 339 339 339
338 339 339 340 340 340 342 340 341 340 340 340 340 342 342 341 341 343 344 346 345 344 345 342 342 342 339 337 338 339 338 340 338 339 341 342 339 340 339 342 342 342 340 341 342 342 340 339 336 336 337 336 335 336 338 336 336 336 337 336 335 332 337 339 337 336 337 340 339 339 338 337 336 338 338 338 340 340 338 339 339 338 338 339 338
339 339 339 339 338 340 341 340 341 341 342 343 343 344 342 340 340 342 344 346 344 341 343 343 342 344 343 342 343 341 339 338 341 338 338 339 338 340 343 340 341 341 342 338 341 341 340 340 339 338 334 334 333 333 337 337 336 336 336 339 338 336 337 334 333 343 336 338 335 340 342 339 337 337 336 340 342 340 339 339 339 340 339 339 339
340 337 338 339 337 338 340 343 340 341 341 341 342 336 337 337 337 343 341 344 341 341 342 342 343 342 342 341 341 340 339 340 342 342 337 340 341 341 340 339 342 340 341 338 338 341 340 341 340 340 338 335 332 331 334 336 333 335 335 334 337 336 337 337 336 337 333 334 336 335 336 339 340 337 338 337 341 340 339 339 339 339 340 339 339
340 342 340 336 334 336 341 345 342 339 340 337 335 335 341 339 335 336 341 337 335 336 340 340 340 341 340 339 341 342 343 344 341 340 343 339 340 339 341 341 338 338 339 338 339 341 341 341 339 341 340 336 333 332 333 334 333 331 334 334 336 336 336 337 337 335 335 335 334 335 336 336 338 338 338 338 338 341 335 328 332 335 336 337 338
340 344 338 339 338 339 341 343 340 337 340 343 341 338 339 338 341 338 336 337 336 336 339 336 336 339 344 341 342 341 339 340 342 342 341 345 341 340 340 343 337 337 339 339 336 341 342 342 337 339 340 337 339 336 337 335 334 331 332 332 337 334 336 335 336 336 336 335 332 332 336 337 337 336 338 337 340 339 337 333 335 335 336 336 337
342 339 337 339 340 339 340 340 340 340 342 342 338 335 334 333 335 338 335 333 333 331 334 334 337 337 340 342 342 343 338 339 339 341 342 339 342 341 340 337 339 339 339 337 337 338 339 339 340 338 338 337 335 337 337 335 334 332 330 333 336 334 331 334 335 335 336 334 334 334 334 334 336 336 337 338 339 335 335 335 338 339 338 335 335
338 334 337 338 340 340 339 339 339 342 340 338 334 332 331 333 332 331 329 330 329 331 332 335 338 336 341 340 340 340 341 339 340 340 338 339 341 341 339 339 338 337 336 339 342 338 339 341 340 339 337 336 334 334 335 334 331 329 331 330 331 334 333 334 335 335 334 333 333 332 332 334 334 335 334 335 334 336 331 335 338 338 340 338 336
331 334 337 338 339 339 338 337 341 340 337 337 337 332 334 331 331 329 329 326 326 327 330 334 336 338 340 342 342 341 341 339 338 340 340 340 340 340 340 340 337 335 338 339 340 340 341 338 339 336 337 334 333 335 335 334 327 325 324 325 329 330 332 332 331 331 332 330 330 330 331 328 325 329 332 332 333 332 331 332 335 337 337 336 336
333 333 336 339 340 338 339 338 333 334 335 338 335 337 338 336 333 330 328 327 332 333 331 333 334 335 338 339 341 342 341 339 341 340 336 339 341 339 338 339 338 335 336 336 337 340 338 337 338 335 333 335 334 336 336 335 327 328 329 325 322 321 324 329 329 329 329 330 329 327 327 325 325 325 327 330 332 333 334 334 334 336 336 334 336
334 335 337 337 335 337 334 330 326 324 330 339 334 339 339 337 336 334 336 333 329 333 335 335 333 333 334 336 341 341 340 338 339 338 338 338 340 338 338 337 338 335 335 337 337 338 339 338 337 336 335 330 329 331 335 337 334 326 320 320 322 320 316 320 322 325 328 326 325 326 326 325 326 326 328 328 328 333 334 335 335 336 334 334 335
334 336 336 334 331 327 332 330 330 332 335 336 341 340 336 335 334 333 330 331 333 330 330 329 331 331 332 333 334 336 340 339 339 337 338 337 338 338 336 336 336 337 335 335 337 337 337 338 338 337 332 333 328 331 334 337 335 334 329 320 318 317 316 321 322 322 326 323 324 324 325 325 325 325 326 326 328 330 330 330 333 333 336 331 333
337 336 335 334 333 334 336 336 335 334 333 337 340 337 334 331 329 327 326 327 326 327 326 325 326 328 327 333 332 332 333 334 335 335 337 338 338 338 338 337 339 337 335 332 334 336 336 336 334 336 334 335 331 328 329 335 337 332 331 328 326 320 316 322 322 316 325 325 324 323 323 323 324 324 325 325 325 325 327 328 330 331 332 334 336
330 334 335 335 339 339 334 336 333 333 334 335 338 335 333 331 331 329 328 328 326 328 330 330 328 326 329 331 330 333 331 332 333 332 333 333 333 333 333 332 331 333 334 336 334 334 335 333 334 333 332 333 333 329 329 331 333 335 330 329 330 331 330 321 319 319 315 319 322 321 321 322 323 323 322 323 324 324 325 326 327 328 330 331 330
328 328 329 333 334 332 334 332 334 332 332 331 336 334 331 332 331 329 328 326 326 325 328 328 328 327 326 327 329 329 330 331 330 330 331 331 331 330 331 331 329 329 328 328 329 329 329 330 334 334 333 332 333 330 329 331 329 329 333 330 327 330 330 330 327 319 318 313 314 318 320 322 323 324 323 323 323 323 324 326 323 324 326 326 328
330 329 328 328 329 329 330 333 335 335 338 336 335 334 334 333 331 329 326 326 325 326 326 326 326 327 326 326 328 328 330 331 330 331 331 330 330 331 331 330 329 329 327 327 330 329 330 335 336 335 333 333 333 334 332 330 330 329 330 331 330 328 329 330 329 325 320 314 312 314 315 319 321 321 323 324 323 324 323 322 322 323 325 324 324
333 333 332 331 330 328 327 327 331 337 340 338 338 335 332 332 329 329 327 324 325 325 325 325 326 327 326 327 326 326 327 330 331 331 330 329 330 331 330 330 330 329 328 328 329 332 333 335 336 336 335 335 334 334 332 331 330 331 331 330 327 326 325 324 325 325 320 318 312 312 315 315 312 316 321 320 320 321 321 322 322 320 322 322 321
331 332 332 333 331 329 327 324 327 333 337 339 338 335 332 330 329 329 328 326 325 325 324 324 324 325 324 325 325 325 327 328 330 331 330 330 331 331 330 329 330 330 329 327 329 328 333 336 337 337 336 334 333 333 332 333 329 330 329 327 325 325 323 319 321 318 317 315 313 313 315 315 312 313 316 318 318 317 317 319 319 320 320 320 319
Wind_Speed
15 19 18 20 16 15 15 15 14 14 16 16 16 15 16 17 17 18 17 17 16 15 15 14 14 15 14 13 13 12 12 11 11 9 9 11 11 12 12 12 12 12 12 13 13 13 13 13 13 12 11 11 11 11 11 11 11 11 11 12 11 11 12 13 14 14 14 14 14 12 13 13 12 13 12 12 13 15 17 15 10 10 9 9 12
18 18 17 17 17 16 17 16 15 15 16 16 16 16 18 17 17 18 18 17 16 15 15 14 14 14 14 13 13 13 12 12 11 10 8 9 10 11 11 12 11 11 11 11 12 13 12 12 12 11 11 11 11 10 11 11 11 10 10 11 12 11 12 12 12 12 13 13 13 13 14 14 12 11 12 13 16 16 16 15 13 10 9 13 13
18 17 16 19 18 16 16 16 16 16 17 16 17 19 17 16 17 18 17 17 16 15 14 13 13 13 13 13 13 12 12 11 11 10 9 9 9 10 10 10 10 10 10 10 11 13 12 11 11 11 11 11 10 10 11 11 13 12 11 12 12 11 10 11 11 11 12 12 13 14 16 14 12 13 14 15 14 16 15 13 13 13 10 12 12
18 15 16 18 18 16 16 15 16 17 17 17 18 19 19 17 17 17 17 17 16 14 13 13 12 12 12 12 12 12 12 12 11 10 10 9 9 9 9 10 9 9 10 10 9 10 10 10 11 11 10 10 10 10 10 10 10 13 12 11 11 11 10 9 7 7 9 11 13 17 9 10 11 13 14 13 13 14 14 14 14 13 13 13 11
17 16 16 16 17 16 15 16 16 17 17 17 19 19 18 18 18 17 17 16 15 14 13 13 12 12 12 12 12 12 12 12 11 10 10 9 9 9 8 9 9 8 9 10 9 9 9 10 10 10 10 10 10 10 9 9 10 10 11 12 11 11 9 7 6 7 9 10 12 8 10 10 9 12 12 13 14 13 14 13 13 13 13 13 13
14 15 16 15 15 16 16 16 16 17 17 18 19 18 16 17 17 16 15 14 14 14 13 13 12 11 11 12 12 12 12 11 11 10 10 9 8 9 8 8 8 8 9 11 9 9 9 9 10 9 10 9 9 9 9 9 9 9 9 10 9 9 5 3 4 4 5 8 12 8 8 9 9 8 12 13 12 14 13 14 12 12 11 13 13
17 14 15 15 13 16 15 16 17 17 18 18 18 16 16 17 16 16 15 15 14 14 14 13 12 11 11 11 12 12 11 11 11 10 10 9 9 8 9 8 8 7 7 9 10 9 9 8 8 9 9 9 8 9 9 9 9 8 8 9 7 6 3 2 2 5 7 7 8 3 6 9 9 8 12 11 10 12 13 14 13 12 13 13 13
14 13 15 15 13 16 15 16 17 17 17 15 15 16 16 17 16 16 15 15 14 14 14 13 12 11 11 11 11 11 11 11 11 10 10 9 8 8 8 9 9 8 7 7 7 7 7 8 8 8 8 8 9 9 9 9 8 8 8 8 7 3 2 4 7 6 9 6 6 5 7 9 10 8 10 12 11 12 13 15 14 12 13 13 12
17 16 15 15 15 19 16 16 16 16 16 15 15 16 17 16 16 15 15 14 14 13 13 13 12 11 11 11 11 11 11 11 11 11 10 8 6 7 7 8 7 7 6 5 5 7 6 6 8 9 8 9 9 9 9 8 8 7 7 7 5 2 4 6 7 10 10 4 6 7 8 10 9 9 10 10 13 12 11 13 13 13 14 13 12
17 16 15 14 16 18 17 16 16 16 17 15 16 16 16 17 16 15 14 14 14 14 14 13 12 12 11 11 11 11 11 11 11 11 10 8 6 5 9 8 8 7 7 6 6 7 7 4 6 8 9 9 9 9 9 8 8 7 6 5 2 3 5 9 9 10 5 9 8 9 13 12 10 9 10 10 12 12 16 18 13 13 11 13 13
16 13 14 16 21 18 17 16 15 16 16 16 17 17 17 16 16 15 14 14 14 13 13 12 12 11 10 10 11 10 10 10 9 12 8 9 7 6 6 9 7 7 8 7 6 7 7 6 7 8 9 9 9 8 8 7 7 6 5 3 1 4 7 9 10 8 6 7 8 6 9 14 9 8 10 12 12 14 15 15 14 14 13 13 13
11 4 11 15 20 20 18 17 16 16 16 17 17 16 16 16 15 14 13 12 12 12 11 11 11 11 11 11 10 10 9 10 6 7 10 8 8 7 6 9 9 8 7 8 8 8 7 7 8 9 9 9 8 7 6 5 5 5 3 1 2 4 8 9 9 2 5 9 5 7 11 12 11 9 13 12 12 12 15 15 15 14 14 12 12
9 7 13 15 17 18 19 18 17 16 15 16 15 15 15 15 14 14 13 12 11 10 10 11 10 10 10 10 9 10 10 11 11 9 11 9 6 9 5 7 9 8 8 8 8 9 9 9 9 9 9 8 8 7 5 4 4 2 1 1 4 6 9 12 8 1 6 6 6 8 10 9 9 11 11 12 13 15 14 15 14 14 13 12 12
10 10 13 14 13 17 17 17 17 17 16 15 15 15 15 14 13 12 10 9 9 9 9 9 9 8 10 8 9 10 12 10 11 9 11 10 7 10 8 7 5 8 8 8 8 8 9 9 9 8 8 7 6 5 6 5 4 3 1 2 5 9 11 11 13 5 4 7 7 9 10 9 9 10 11 11 11 12 13 13 14 13 12 12 11
11 11 13 12 15 16 16 15 15 14 16 16 16 15 14 13 12 10 8 9 8 8 8 10 11 11 10 10 10 10 11 12 12 11 12 11 10 10 10 9 7 8 8 8 9 11 10 9 7 6 7 6 5 4 4 5 3 2 2 2 7 9 11 8 5 5 5 3 5 11 10 9 8 10 10 11 11 11 12 12 13 13 13 12 11
12 10 12 11 12 13 12 14 14 15 16 16 16 14 13 12 12 11 10 8 8 8 8 9 11 10 10 10 10 10 10 11 11 12 12 10 11 10 10 9 9 9 9 9 9 8 9 9 8 6 5 5 4 4 4 3 2 1 1 2 6 8 9 10 6 5 3 5 6 9 10 9 6 10 9 11 11 11 11 12 12 13 13 12 11
14 13 14 15 14 13 13 13 13 17 16 16 16 15 14 13 12 9 11 11 9 8 8 9 10 10 10 10 10 10 10 10 11 14 13 11 11 11 9 9 10 10 10 10 11 10 10 9 7 6 5 4 4 5 5 4 4 2 1 1 5 8 10 10 4 5 6 5 4 8 8 9 9 9 10 10 11 11 11 11 13 13 12 11 11
13 9 10 14 10 9 9 10 13 14 14 14 15 15 14 14 12 8 7 10 10 10 10 8 9 9 9 10 10 10 10 10 12 12 13 11 11 11 10 9 9 10 11 11 11 10 9 8 6 5 5 5 5 6 5 5 4 3 0 1 5 9 11 10 1 5 5 4 7 12 9 9 6 9 10 10 10 10 10 10 10 11 11 11 11
9 5 9 9 8 10 9 11 11 11 13 11 12 12 15 16 15 12 10 9 10 10 10 10 9 9 9 9 10 10 10 11 10 11 12 12 11 11 10 9 10 10 11 11 11 10 9 8 6 5 4 3 6 6 4 4 3 1 2 2 6 9 12 9 3 4 5 5 8 10 10 9 8 9 10 10 9 10 10 10 11 11 10 11 10
9 5 9 6 10 8 8 8 10 11 9 10 12 12 14 17 15 13 12 9 12 11 11 11 10 9 9 10 10 9 10 9 10 10 11 11 11 9 10 9 10 10 11 11 11 10 9 7 6 6 4 3 5 6 6 4 3 3 3 4 6 8 7 5 4 6 3 5 10 9 11 7 4 8 9 9 10 9 9 9 9 9 10 10 10
6 8 9 10 14 16 14 11 10 12 11 10 10 11 11 14 13 12 12 11 11 12 11 11 10 9 9 8 7 7 6 7 7 8 10 8 6 10 11 12 11 11 12 11 11 10 9 8 7 6 6 4 4 6 7 6 6 4 5 5 6 6 2 3 3 4 5 7 9 10 12 5 4 8 8 9 9 9 8 8 8 9 10 10 9
9 9 10 11 14 15 17 13 9 13 10 7 6 8 9 10 11 10 10 9 10 10 9 8 9 7 8 7 5 5 5 5 4 8 6 8 9 9 10 11 11 12 12 12 11 11 9 8 8 8 8 7 8 6 8 8 7 7 7 7 6 4 2 1 1 4 6 8 9 9 13 8 5 8 8 7 8 7 8 8 8 9 10 10 9
10 8 7 12 13 13 14 12 12 11 10 10 7 4 9 6 10 9 8 10 11 10 9 9 8 9 8 6 3 4 2 3 2 5 5 6 8 9 10 11 11 11 11 11 11 10 9 9 9 9 9 9 7 7 5 6 7 10 8 7 5 4 4 3 2 4 7 9 9 12 13 9 4 8 8 7 6 8 6 8 10 10 11 10 9
12 10 10 9 12 12 14 13 12 13 11 6 8 7 6 7 8 8 8 8 9 8 8 9 8 8 7 3 5 2 2 2 2 6 6 6 7 9 10 11 11 11 12 10 10 10 10 8 8 9 7 7 7 5 5 4 5 6 7 6 4 3 4 4 3 5 7 10 9 13 12 9 7 8 8 9 7 6 7 10 9 11 10 9 9
11 10 9 10 10 10 12 11 11 12 11 10 9 7 7 6 6 6 8 7 7 7 8 7 4 6 9 4 6 3 2 2 4 5 3 2 6 7 7 8 7 8 12 7 7 8 8 7 6 7 6 7 7 4 5 5 4 4 4 3 3 4 2 2 3 4 7 8 9 12 11 9 7 6 7 8 8 7 6 11 9 10 9 8 8
12 9 10 10 10 11 11 11 8 10 11 10 8 7 7 5 6 5 6 6 6 6 6 7 5 3 5 6 6 5 4 3 2 3 3 2 3 4 6 4 7 6 8 5 5 6 6 5 7 6 6 3 2 2 3 4 5 4 4 3 3 4 4 3 4 4 7 8 8 11 11 10 8 6 5 7 8 7 8 10 10 9 8 6 7
9 9 9 9 10 11 11 12 10 4 9 10 8 9 8 7 7 6 5 5 6 6 5 6 6 3 4 5 6 6 6 6 5 3 6 7 6 3 2 1 2 3 6 4 6 6 4 6 2 6 3 3 3 4 3 4 3 4 4 5 4 5 2 5 4 5 8 7 9 11 10 10 9 6 3 6 7 8 8 9 6 6 5 6 7
8 10 9 9 10 11 12 11 11 13 8 11 12 11 7 9 9 9 7 8 6 6 5 5 5 4 3 7 4 1 2 3 4 7 9 7 6 6 3 1 2 7 4 5 6 6 7 3 6 3 4 4 4 4 6 6 3 1 2 3 5 4 3 3 5 5 7 7 8 9 10 9 9 8 5 5 6 6 7 6 6 6 5 4 7
10 10 10 9 11 10 12 14 14 10 11 11 10 8 8 8 8 8 6 5 5 4 3 4 3 4 2 4 3 3 3 3 3 4 5 4 4 4 3 5 8 7 8 8 8 7 7 7 5 4 3 3 3 3 4 6 3 4 5 3 5 6 4 5 6 4 6 7 7 8 10 9 8 7 6 4 5 5 4 6 5 6 6 4 8
10 10 10 10 12 11 13 12 12 15 12 10 7 8 8 8 8 8 6 7 5 4 4 3 2 2 2 3 2 1 2 4 5 6 6 7 3 7 7 6 3 5 6 5 4 4 4 4 5 5 6 5 4 4 3 6 4 4 4 4 5 8 3 2 3 5 5 6 7 7 10 9 8 7 5 5 4 4 4 5 6 5 6 5 5
10 9 9 11 10 12 11 12 11 11 11 10 8 9 9 8 8 7 6 5 5 4 2 2 1 1 3 3 2 2 4 2 1 6 2 3 4 3 4 3 2 2 8 2 3 3 4 4 4 4 3 3 3 4 5 5 6 5 1 4 8 9 7 5 4 4 5 7 6 7 8 9 8 7 6 4 4 3 2 3 4 6 6 5 4
10 10 10 9 9 11 13 12 11 9 10 10 10 8 6 6 7 6 5 5 4 3 2 2 2 1 3 3 1 2 4 4 3 4 2 1 1 3 4 3 0 3 4 7 5 4 5 5 4 3 4 2 3 3 3 4 5 5 6 3 3 3 3 3 2 3 2 5 7 6 6 6 8 8 6 5 3 3 3 2 3 4 5 4 5
7 10 11 12 12 10 10 11 10 9 9 10 9 8 8 8 7 6 5 5 4 3 2 1 1 1 3 3 2 4 3 6 2 2 3 4 3 3 3 4 3 2 8 8 6 5 4 4 5 5 4 4 4 4 5 3 2 3 1 4 3 5 4 4 8 3 3 1 2 7 3 4 6 8 9 8 5 4 3 2 2 1 2 1 4
9 9 13 12 11 8 7 7 8 10 9 8 7 7 6 7 5 5 6 5 4 3 2 1 1 1 5 3 4 7 6 3 2 3 3 2 2 4 5 4 6 8 5 1 2 5 6 5 6 6 5 5 5 5 5 5 6 7 9 11 8 5 10 3 2 1 4 2 1 5 8 3 4 4 6 8 9 7 7 4 2 1 1 2 3
9 10 12 13 12 10 7 6 8 10 8 8 7 6 6 4 6 5 5 4 3 2 1 2 3 3 3 6 10 7 5 6 5 4 5 3 5 4 5 3 1 4 4 2 5 2 4 5 5 6 4 5 5 5 6 5 6 2 2 3 9 3 5 4 6 5 4 2 2 3 4 5 5 5 4 4 7 9 8 6 6 3 2 2 2
11 10 10 11 12 10 9 8 9 8 8 5 4 4 5 4 4 5 4 4 2 1 1 1 2 1 3 6 6 3 3 6 9 8 3 8 10 8 5 4 2 5 3 5 6 1 3 4 3 5 4 4 6 7 3 4 6 4 4 3 4 2 3 5 3 1 7 5 3 3 3 3 2 2 3 3 3 7 8 8 7 7 6 4 5
10 11 11 12 11 10 8 8 9 8 8 3 6 10 8 7 5 3 4 4 3 1 2 2 2 4 4 6 5 5 9 12 6 7 9 8 3 3 7 7 4 3 1 3 3 4 3 3 3 3 4 4 5 7 7 4 4 4 4 4 3 2 3 3 2 3 3 2 1 4 3 2 4 4 2 1 3 3 4 6 1 6 6 5 5
8 9 11 11 11 10 8 6 8 8 5 6 6 4 6 9 6 2 1 5 6 6 5 4 4 6 7 6 7 7 4 5 2 3 3 7 4 4 3 7 3 3 4 3 1 3 1 2 3 2 4 4 4 5 4 5 4 5 3 4 2 1 3 2 1 2 1 2 1 1 2 1 2 4 2 4 1 3 5 5 10 3 0 3 5
7 8 10 8 8 7 7 7 9 9 5 6 5 5 3 3 6 8 7 8 10 10 9 9 9 5 4 5 5 4 1 5 4 5 3 3 5 3 5 4 6 4 1 3 2 2 2 2 4 4 2 4 4 2 4 3 2 2 6 4 6 2 2 2 1 1 3 1 2 2 0 1 1 4 4 2 4 8 5 7 3 2 4 7 5
7 9 7 3 5 6 7 9 6 8 6 7 4 1 3 3 6 9 10 9 8 6 5 4 3 4 3 5 4 6 4 2 4 4 3 2 5 2 4 5 4 4 3 4 5 4 4 4 4 3 4 4 2 2 3 3 3 8 4 5 3 7 0 1 1 1 2 2 1 1 2 3 2 1 1 2 2 9 5 4 4 4 2 3 2
7 8 6 8 7 7 8 9 7 7 6 4 3 4 5 11 8 7 7 6 5 5 4 4 4 3 4 4 5 4 8 6 3 4 3 6 2 1 5 2 1 2 3 4 4 3 4 4 3 4 4 4 7 4 2 2 4 5 4 4 4 4 2 1 0 1 1 1 2 1 3 3 3 2 2 1 2 6 7 3 3 4 1 4 3
6 7 9 9 9 8 8 9 9 5 5 4 3 8 10 5 5 5 5 6 6 4 4 4 4 4 4 5 5 5 5 6 3 5 1 3 2 3 3 7 10 6 3 4 3 4 4 2 4 4 4 4 1 6 7 8 6 4 4 3 2 1 0 3 1 0 1 3 3 3 3 2 2 2 2 2 3 6 5 8 3 1 1 4 2
13 10 5 5 4 4 4 8 9 5 2 5 9 4 1 5 5 5 4 5 7 5 5 5 5 4 4 4 4 4 4 4 5 6 4 5 3 2 2 2 5 2 1 4 4 5 3 4 4 4 4 3 3 2 3 2 3 3 3 4 5 4 2 1 1 1 0 1 1 3 3 3 3 2 2 2 3 5 5 3 2 3 6 5 3
7 5 6 3 3 7 8 12 6 6 5 5 2 2 6 8 8 7 8 6 6 5 5 4 5 5 5 3 3 4 3 4 5 5 2 4 1 3 2 2 2 8 5 4 5 5 4 5 5 4 2 2 4 4 2 4 1 10 4 1 3 2 4 4 4 2 2 2 1 3 1 3 3 4 2 3 4 4 4 4 5 3 4 7 3
9 9 8 8 4 8 2 10 5 6 4 4 1 4 6 7 7 7 6 7 6 5 4 5 4 4 5 4 4 3 3 3 2 2 5 5 3 3 5 5 6 5 6 3 4 5 6 6 4 1 1 6 3 3 3 2 4 4 2 4 3 3 1 2 4 4 3 3 3 3 2 2 4 2 3 3 4 4 4 5 5 5 8 11 3
9 8 8 7 6 7 8 10 6 3 2 2 4 4 5 5 5 4 4 5 5 5 5 4 4 4 5 4 5 4 4 3 3 3 4 2 2 2 1 2 2 3 5 6 3 3 6 5 4 4 7 4 1 4 3 3 4 7 3 1 1 1 5 6 5 5 1 3 1 4 4 4 2 3 3 4 6 6 4 5 5 6 7 8 5
9 7 6 3 6 6 9 7 8 5 3 4 4 4 5 4 4 3 3 3 5 5 4 4 3 5 3 3 4 2 3 3 4 3 3 3 2 1 1 2 2 1 4 5 7 7 6 7 8 7 4 3 3 4 4 3 4 3 7 6 3 4 4 7 5 6 6 2 3 3 5 6 7 6 6 6 6 5 4 5 6 6 7 7 7
13 9 6 6 8 7 5 7 8 7 3 9 5 6 5 4 3 3 3 3 4 5 4 4 4 3 4 3 3 3 2 4 2 2 3 3 2 2 1 0 2 4 4 5 4 3 4 3 3 3 3 3 3 0 3 3 4 4 4 7 8 6 2 1 4 3 2 6 5 5 5 5 5 5 6 6 6 5 4 4 6 7 6 7 7
12 11 9 9 8 7 8 4 7 10 11 9 7 8 6 5 4 3 4 4 5 4 4 4 4 4 3 2 2 4 4 3 4 3 2 3 2 1 1 1 1 1 2 4 4 3 3 5 3 2 3 2 2 2 1 1 3 2 4 3 6 5 3 2 3 2 4 5 5 5 5 5 5 5 4 4 5 5 5 4 4 6 6 7 7
9 7 7 7 7 7 6 6 3 4 6 8 7 7 6 4 4 4 5 5 4 4 4 4 4 3 4 3 3 3 4 3 3 2 1 3 3 3 3 2 2 3 4 5 5 4 4 4 4 3 3 2 2 2 2 2 2 1 4 4 3 7 6 1 1 1 6 4 4 6 5 6 5 4 3 4 5 5 5 5 6 7 6 7 7
9 9 8 10 10 9 9 9 4 3 5 6 8 9 7 5 5 5 5 5 4 4 4 4 4 3 4 4 3 3 3 4 3 3 3 4 4 4 3 3 4 3 3 3 3 4 4 4 5 5 5 4 3 3 2 2 3 2 3 4 2 2 0 4 5 6 5 3 5 5 6 6 6 5 4 3 3 6 6 5 6 6 6 6 7
Wind_Direction
136 134 137 133 138 136 130 129 129 132 135 136 136 130 123 121 123 125 127 128 129 130 130 128 129 126 123 119 119 117 116 114 110 111 116 125 130 129 130 128 127 124 124 125 119 114 117 118 114 108 105 104 99 95 92 93 86 82 91 101 98 84 89 84 83 91 101 94 86 84 80 82 81 74 54 54 55 50 40 33 62 69 75 69 63
137 135 137 137 135 136 136 135 131 134 136 135 132 125 127 120 122 125 127 130 130 129 131 129 128 125 124 122 122 120 118 115 114 115 118 126 129 132 132 130 127 128 124 126 124 116 117 116 112 109 106 105 105 99 96 95 91 87 86 88 91 93 92 88 84 86 89 96 96 89 80 77 76 69 68 67 57 54 50 41 52 75 71 62 55
129 132 137 135 135 136 137 136 132 133 136 135 129 131 127 123 126 126 127 128 128 129 126 124 123 123 122 123 120 121 118 115 117 120 125 128 132 132 134 130 127 132 132 130 132 126 124 120 116 113 114 111 107 102 103 95 90 83 85 90 87 82 81 88 101 111 114 120 120 103 93 90 85 78 68 60 63 64 61 55 64 67 71 71 73
127 134 135 130 134 137 138 134 134 135 136 135 135 134 130 124 127 127 127 127 126 120 121 124 124 123 123 122 122 120 118 118 120 124 129 131 137 146 139 129 136 141 139 132 129 130 128 123 120 117 114 113 109 109 107 93 96 82 85 87 92 87 95 106 120 125 127 131 135 140 115 84 75 69 72 68 75 78 75 75 73 69 75 78 82
133 135 131 136 141 138 137 136 137 136 135 136 136 137 133 129 129 129 128 125 122 122 125 124 127 128 126 125 122 121 121 121 123 127 130 135 141 144 142 141 142 142 138 131 132 134 130 125 123 123 118 117 113 108 106 107 95 90 84 86 91 102 102 130 153 151 168 161 183 222 82 95 86 72 74 73 74 83 80 77 73 72 65 67 63
128 136 135 139 143 141 139 138 137 137 136 137 138 135 127 126 127 126 122 118 121 126 128 131 134 134 131 128 126 125 123 124 127 128 133 136 141 140 142 143 142 145 143 137 140 136 137 132 129 121 120 118 116 110 107 114 112 101 96 87 90 97 121 165 194 224 207 183 203 228 96 94 88 89 78 73 69 79 78 69 59 78 93 91 86
129 134 140 140 140 144 140 139 137 137 137 137 134 126 124 124 121 120 120 122 127 131 134 139 141 138 135 133 131 128 128 130 131 131 132 137 137 141 142 140 136 139 142 143 146 142 139 138 129 124 121 118 114 115 114 113 107 106 100 96 92 102 141 223 268 252 247 251 222 131 91 88 92 84 79 85 82 85 83 72 64 54 61 61 60
132 139 142 142 144 142 142 139 137 136 135 131 125 122 121 123 122 121 124 128 132 136 141 142 141 140 139 135 135 136 136 135 132 132 135 139 142 140 138 139 139 143 144 141 137 126 141 141 134 125 117 118 116 118 115 107 104 100 98 101 86 101 218 231 251 263 254 262 60 70 80 89 93 88 80 71 57 57 75 78 67 62 58 51 76
136 142 142 140 140 145 141 138 137 137 135 128 126 123 121 120 122 124 127 132 137 142 142 141 143 144 143 142 140 140 138 138 137 134 128 127 116 125 130 130 133 135 133 126 108 138 137 130 136 121 123 119 120 114 112 106 98 97 99 104 94 110 263 262 247 252 260 202 111 71 35 107 102 94 83 74 65 68 89 96 86 67 63 60 60
138 141 142 143 145 142 140 137 137 139 138 131 127 125 123 123 127 130 133 138 143 143 144 144 147 146 145 145 144 142 144 147 146 143 128 116 108 93 129 126 131 133 127 115 104 99 104 120 130 123 118 122 121 112 106 98 90 89 96 102 118 243 246 274 286 280 292 54 48 67 44 51 86 82 72 73 70 62 71 64 64 60 66 79 78
135 136 145 139 143 138 137 139 141 143 142 135 132 129 129 129 131 134 140 146 146 145 144 143 144 144 147 147 146 147 148 142 146 133 128 124 123 105 113 125 117 127 129 125 122 115 108 108 120 120 123 123 118 116 104 99 92 89 87 95 241 268 285 279 284 273 83 87 88 102 86 77 75 85 97 83 68 66 68 75 75 72 71 71 74
73 65 135 138 137 138 139 144 147 149 143 137 133 131 130 129 129 136 143 146 142 140 138 141 143 147 152 151 148 136 129 115 86 148 140 133 128 114 124 124 127 128 131 129 123 122 124 121 122 127 124 123 126 120 108 111 106 93 95 70 267 276 277 288 282 296 68 69 76 68 69 77 86 92 88 87 88 82 75 77 78 78 79 78 77
109 105 134 131 140 140 142 147 151 148 142 135 131 128 130 130 134 145 150 145 140 136 136 138 143 148 150 147 145 135 132 130 137 145 127 131 138 112 98 106 125 128 132 132 127 127 128 123 124 126 127 135 132 125 125 122 128 108 96 254 283 270 268 254 263 290 71 97 102 87 85 82 87 94 92 85 81 81 78 77 77 76 75 74 70
89 117 128 137 135 140 143 148 150 146 141 134 128 127 132 134 140 144 137 129 127 126 132 134 133 139 139 137 130 135 131 133 125 130 116 130 139 119 105 94 109 131 130 127 118 114 117 129 132 135 137 137 132 136 143 147 158 173 170 251 260 268 275 277 252 78 89 75 64 86 83 79 79 82 82 86 84 77 76 77 78 75 72 73 70
112 134 133 133 138 145 147 147 140 135 133 132 129 129 133 132 129 121 112 110 112 114 126 129 127 139 137 133 134 136 138 139 135 140 124 127 142 121 113 125 134 131 127 120 124 126 131 129 126 124 116 120 136 144 150 151 164 150 163 218 253 268 282 294 309 77 92 99 98 88 90 90 90 84 80 82 84 83 79 77 75 77 75 71 71
129 147 135 126 136 141 149 144 132 129 130 128 127 128 122 115 105 99 92 90 99 111 118 122 124 129 131 131 133 135 135 137 137 125 124 137 140 128 115 124 131 126 124 125 125 122 115 118 118 128 116 103 114 99 93 80 81 111 147 191 257 277 282 287 290 111 99 96 87 86 89 84 63 85 84 79 79 80 78 77 77 78 75 71 70
135 144 138 137 146 153 152 147 134 132 125 127 130 127 122 115 110 96 108 104 107 114 129 128 124 128 126 128 129 131 130 130 131 131 138 146 141 132 120 117 130 129 125 119 117 117 121 125 132 136 133 111 97 86 70 57 50 38 100 235 275 284 274 276 280 70 59 46 85 102 90 90 77 85 83 81 83 82 79 77 81 81 73 68 70
124 119 119 139 143 149 141 136 141 136 131 128 128 127 120 112 106 107 106 113 124 124 127 128 127 127 127 128 126 125 126 129 128 133 138 144 139 136 134 125 130 128 124 122 120 123 130 130 138 141 146 138 112 95 81 63 55 56 274 291 285 281 281 297 11 89 82 85 80 77 86 83 97 96 91 83 81 84 84 84 83 79 77 77 71
79 60 76 120 147 149 143 138 143 136 138 142 142 127 122 126 138 155 152 132 127 134 135 129 130 134 133 127 126 125 125 125 126 127 132 141 140 136 132 134 134 133 129 123 121 122 126 134 142 145 165 149 127 121 108 92 81 104 155 244 269 284 295 287 213 110 101 90 71 88 87 63 96 100 93 92 91 89 93 91 85 89 86 79 73
93 100 86 98 143 132 127 130 143 152 146 145 144 139 141 146 156 155 147 143 144 139 137 137 139 140 138 133 130 129 133 132 132 136 142 140 152 144 137 136 140 134 129 123 123 124 127 134 143 156 165 193 141 139 134 139 141 152 189 200 254 275 268 257 47 95 101 79 86 90 81 52 62 96 99 92 89 94 92 89 95 90 93 85 79
108 123 130 131 149 158 157 148 156 157 159 144 145 145 147 151 155 153 148 149 147 140 138 143 143 142 146 144 145 148 131 132 152 141 143 147 119 125 143 139 139 139 136 134 134 137 140 143 154 163 177 187 193 157 150 165 177 181 177 206 244 258 282 74 144 131 126 100 93 95 77 40 92 94 94 104 106 90 94 102 97 93 100 98 86
125 134 141 147 156 161 160 152 154 158 154 135 129 142 149 159 161 157 150 147 142 145 151 150 147 152 162 155 153 136 147 131 135 139 153 141 138 139 140 139 143 147 146 145 143 145 151 156 160 175 183 190 202 199 174 177 186 182 180 202 224 224 170 124 94 121 99 90 98 98 80 53 94 95 89 91 100 91 89 96 88 93 98 95 88
123 130 147 160 164 160 160 158 164 153 142 142 163 136 157 159 162 157 155 158 158 161 159 155 155 171 174 153 100 61 65 105 151 163 176 129 126 144 140 144 150 153 152 147 150 152 155 168 179 188 194 203 211 205 178 163 176 184 183 199 221 219 140 150 134 71 88 91 92 92 83 57 82 113 100 97 98 105 112 98 106 98 98 96 96
129 137 153 165 174 171 169 150 159 159 145 152 143 165 167 162 162 162 162 163 162 169 168 166 172 179 149 114 118 132 98 63 177 144 151 134 139 146 152 153 156 159 156 159 157 163 167 179 196 205 206 205 204 202 180 161 173 177 188 194 206 161 160 182 139 95 78 87 96 93 85 70 78 117 109 101 98 97 103 108 104 106 100 98 97
130 141 149 163 174 180 167 150 151 156 161 144 155 162 161 171 161 163 161 168 166 175 169 178 175 179 125 196 116 118 185 156 214 154 147 131 168 165 164 173 170 166 174 176 179 165 184 179 189 217 213 202 202 180 176 161 188 189 175 190 180 171 173 156 86 137 104 88 98 91 88 78 69 111 121 111 101 99 100 111 115 107 105 99 100
141 150 147 156 168 178 173 157 169 155 145 153 160 157 137 162 161 165 163 163 177 166 169 162 184 187 152 147 113 161 195 184 207 104 53 334 294 188 178 179 178 179 186 188 194 172 195 189 193 205 211 169 164 155 176 167 175 184 172 167 179 181 192 142 112 73 112 107 107 104 98 86 84 93 115 124 113 110 96 109 115 111 110 111 102
149 148 152 150 161 170 172 163 148 164 159 150 158 149 161 169 158 173 175 176 179 165 182 177 164 192 153 98 122 182 203 186 168 165 133 224 208 220 149 199 220 252 181 199 204 183 192 228 198 212 160 163 177 165 180 175 186 160 163 177 197 181 163 109 131 120 110 115 122 116 112 104 95 92 102 135 128 125 128 141 120 104 108 107 118
143 148 144 151 157 164 167 161 149 155 172 174 165 157 143 157 158 170 183 172 179 171 185 189 140 177 168 145 152 173 189 170 205 171 173 210 200 170 110 163 320 246 231 182 198 177 192 195 217 190 193 157 169 187 175 145 180 193 107 158 174 155 172 146 78 101 122 121 130 126 121 115 111 90 83 128 142 144 137 126 121 116 113 122 131
146 152 145 149 156 155 162 160 155 154 159 171 151 142 148 162 158 165 168 160 167 157 176 167 185 154 137 106 140 130 210 236 211 204 140 209 180 123 158 196 203 195 225 214 199 187 165 175 183 181 156 172 161 198 164 142 159 159 181 161 191 155 182 116 166 158 126 129 126 127 129 121 112 108 98 99 132 139 153 139 133 137 126 132 135
154 147 147 154 156 159 161 152 152 156 163 149 156 149 153 160 169 170 162 173 176 159 160 170 161 160 117 91 119 171 263 242 256 240 169 164 195 147 212 199 222 241 212 226 167 181 151 150 168 185 154 186 157 163 156 151 160 168 180 157 45 11 2 73 212 140 115 121 115 131 132 123 115 107 91 95 97 117 137 144 140 122 144 143 141
151 156 152 157 161 162 153 159 152 150 154 153 155 156 161 167 170 172 164 174 165 160 161 126 117 80 87 64 52 251 243 227 160 314 244 188 161 113 202 185 240 8 294 223 160 165 147 165 170 177 154 134 148 143 185 141 162 144 214 150 167 167 183 218 139 107 143 112 122 138 133 128 122 113 110 94 106 117 98 120 145 143 144 161 133
162 160 160 133 152 165 161 161 152 161 155 152 157 152 160 165 169 170 161 160 142 150 155 153 151 124 85 105 134 221 251 259 182 183 240 241 213 207 163 176 109 295 279 262 161 160 165 158 136 103 93 116 127 154 121 144 151 158 184 170 139 146 151 75 119 109 100 133 147 134 135 137 131 126 123 122 123 100 121 104 110 136 124 130 155
154 160 141 151 160 165 156 154 154 160 163 157 162 157 158 173 168 164 140 138 159 142 149 157 97 107 98 139 220 245 293 265 204 246 218 221 229 202 106 174 160 166 244 238 150 161 153 139 149 127 156 126 120 133 136 185 111 121 147 131 181 151 88 56 34 356 103 74 110 108 65 161 145 149 150 148 133 119 103 120 129 124 119 89 114
158 152 146 160 156 149 149 156 163 162 167 156 149 153 164 155 163 148 135 143 139 140 121 74 26 98 121 157 231 228 218 265 118 273 258 240 258 206 179 191 162 203 223 324 246 175 158 161 156 155 135 143 129 131 143 150 66 24 36 354 348 8 67 67 190 177 45 127 161 136 150 164 160 156 158 159 153 147 140 132 125 83 353 11 344
150 152 155 155 154 146 146 169 172 175 175 154 166 155 164 150 143 119 118 133 123 115 146 161 202 168 154 167 218 187 226 208 197 208 258 223 223 220 203 122 193 196 182 65 317 310 163 164 170 145 157 137 134 83 55 73 97 94 19 93 301 120 113 121 205 192 142 56 153 111 141 167 171 169 155 155 162 156 152 147 140 160 172 238 233
149 152 150 151 153 145 158 163 175 178 164 126 103 42 33 38 25 108 112 92 86 92 121 224 236 205 191 209 177 220 219 252 198 202 227 229 208 202 152 86 199 257 165 142 222 266 170 161 148 131 154 148 131 128 129 111 114 162 186 171 227 118 150 157 123 248 130 161 196 137 146 204 170 157 168 156 162 164 163 157 163 168 184 203 220
148 154 149 150 155 153 161 164 178 155 129 101 57 66 61 34 357 32 108 91 54 306 222 229 223 242 226 230 155 208 204 210 216 185 182 235 250 258 129 162 181 243 100 99 330 265 146 151 118 152 164 158 157 141 143 175 137 139 168 151 174 111 15 10 42 27 75 98 188 150 157 136 165 133 241 142 159 130 124 21 175 196 198 191 217
142 141 139 155 163 160 170 157 153 97 91 102 121 168 154 142 168 140 135 117 169 222 188 199 244 240 216 225 185 172 232 215 192 282 177 243 224 190 140 130 143 266 103 171 250 306 172 126 140 163 177 176 161 136 166 149 166 154 127 94 90 272 109 118 106 216 98 81 76 15 78 104 134 169 157 218 109 60 109 262 254 266 112 238 231
141 126 137 153 162 163 163 142 102 106 151 123 126 142 161 118 183 164 173 184 180 199 179 188 198 201 203 202 172 120 221 261 187 192 354 306 258 155 157 143 103 243 116 120 200 201 140 152 158 199 188 213 54 91 98 106 134 32 92 62 12 335 58 16 221 82 69 52 32 51 307 111 203 127 163 219 203 117 162 202 222 189 193 206 214
108 83 78 106 144 152 162 127 130 138 148 136 133 89 81 196 185 191 172 173 159 155 143 153 161 161 165 161 171 155 131 291 193 200 174 353 272 164 82 87 141 197 166 164 180 199 174 179 168 213 190 136 156 122 123 132 91 84 73 74 72 352 346 92 33 117 138 124 97 227 140 163 161 56 254 71 135 149 179 212 171 204 176 168 229
76 97 177 164 174 172 166 134 149 149 141 121 96 76 214 199 176 162 144 136 127 137 133 115 120 101 147 142 147 133 145 168 220 94 212 198 198 167 134 98 77 277 191 161 149 170 186 174 177 195 181 182 162 155 179 124 121 90 83 88 10 8 22 258 279 70 58 90 125 94 52 39 44 70 19 327 291 122 168 244 176 153 210 120 128
121 195 187 171 169 170 176 141 143 112 100 121 118 205 199 145 154 135 129 140 150 145 123 114 104 122 128 129 133 140 139 126 248 138 235 171 209 172 170 169 151 202 157 136 161 169 151 179 187 179 197 195 158 151 194 166 190 146 130 101 65 10 123 283 93 72 203 146 141 131 112 83 92 64 26 2 12 17 83 119 289 326 209 118 163
165 194 160 144 140 149 145 92 72 47 338 171 184 212 359 84 79 71 74 78 58 69 95 99 116 110 102 114 110 129 148 154 160 129 191 208 184 141 151 86 111 112 122 150 158 177 152 233 196 191 181 197 185 164 180 178 126 84 101 145 166 167 170 278 269 140 31 7 113 121 139 134 107 103 87 40 44 34 31 72 103 190 135 138 164
143 155 109 109 47 14 23 81 113 171 194 289 17 274 70 77 73 73 55 62 86 84 88 93 103 118 106 74 102 120 131 144 157 158 244 113 169 165 131 179 133 135 246 160 160 154 168 193 190 202 199 220 193 169 223 218 44 136 154 238 134 182 149 184 164 141 131 156 181 96 32 88 108 117 123 107 62 65 66 42 68 43 118 133 104
143 140 120 115 154 119 164 117 146 184 199 278 146 110 109 97 94 89 96 105 118 118 120 106 84 80 92 107 81 78 113 119 151 143 140 122 162 192 144 226 149 189 166 245 158 173 187 195 185 202 127 244 180 157 196 240 204 94 131 152 156 213 301 142 174 141 180 157 120 95 63 25 63 57 88 71 107 92 76 72 67 61 64 99 154
121 107 105 131 142 152 146 138 158 144 97 239 188 139 119 119 110 119 120 128 130 141 125 133 145 152 104 92 114 118 96 87 82 74 83 96 83 99 130 123 96 170 114 174 268 199 193 193 186 190 207 197 235 178 209 184 268 145 177 223 336 36 168 175 174 145 110 62 30 91 124 99 123 83 52 51 45 39 48 69 66 74 64 99 135
86 97 89 87 133 133 145 147 123 75 346 310 207 126 113 123 137 134 135 129 113 95 95 95 89 89 97 108 97 85 122 139 136 140 150 150 151 179 212 231 168 189 167 170 165 191 200 186 204 196 196 204 207 206 190 182 187 203 144 217 242 231 199 188 192 135 152 157 100 96 53 54 43 51 58 70 65 60 53 74 65 61 78 72 74
127 121 121 112 84 68 54 119 110 127 150 230 154 118 127 126 152 108 100 113 102 109 112 95 83 94 102 123 122 129 147 109 114 120 130 139 138 143 183 274 213 166 181 173 178 205 202 180 199 201 184 189 194 281 239 162 215 166 178 176 164 242 200 314 279 136 156 144 131 84 81 61 72 52 56 64 77 79 49 37 68 72 60 64 66
143 143 139 121 115 105 88 83 141 160 161 166 152 145 148 141 125 119 101 93 115 129 124 118 108 95 125 133 121 106 97 98 109 116 115 108 136 92 56 108 27 81 138 116 144 129 140 149 160 153 151 185 159 132 209 186 227 158 177 190 163 171 182 209 249 76 244 134 137 127 109 97 83 70 63 77 88 76 62 60 83 89 91 88 75
119 95 86 106 118 110 92 94 84 112 120 138 136 136 141 148 119 120 111 120 130 130 129 117 118 141 117 104 111 132 121 122 128 103 117 100 81 110 94 71 78 28 35 70 89 114 124 128 129 117 118 121 113 131 184 191 233 138 203 166 191 149 157 226 300 296 242 155 134 139 135 136 112 102 125 123 101 90 89 71 54 58 60 75 78
121 147 159 154 149 153 164 142 128 145 143 145 149 143 149 163 153 134 131 124 130 141 131 144 138 148 137 147 160 135 141 124 120 110 66 76 65 73 101 116 87 71 79 103 114 125 129 126 123 121 115 115 132 118 130 87 241 136 242 154 229 78 160 173 155 196 191 143 120 135 154 116 112 113 75 63 96 109 109 98 75 68 77 72 72